{"data":{"norad_id":56477,"epoch":"2026-05-25T03:30:19.596960Z","epoch_age_seconds":58928,"freshness":"FRESH","line1":"1 56477U 23064AF  26145.14606015 -.00000851  00000+0 -63532-4 0  9993","line2":"2 56477  69.9986 291.6004 0002569 264.0833  96.0033 14.98335195167191","mean_motion":14.98335195,"eccentricity":0.0002569,"inclination_deg":69.9986,"raan_deg":291.6004,"arg_perigee_deg":264.0833,"mean_anomaly_deg":96.0033,"bstar":-6.3532e-5,"rev_number":16719,"period_min":96.106665905288,"perigee_km":570.2543254553,"apogee_km":573.82532630844,"semimajor_km":6950.1768258819,"source":"CELESTRAK","updated_at":"2026-05-25T13:38:18.072357Z"}}